Weather Roundup
Issued by NWS

Home | Current Version | Previous Version | Text Only | Print | Product List | Glossary On
Versions: 1 2 3 4 5 6 7 8 9 10 11 12 13 14 15 16 17 18 19 20 21 22 23 24 25 26 27 28 29 30 31 32 33 34 35 36 37 38 39 40 41 42 43 44 45 46 47 48 49 50
876
NZUS93 KARX 220459
HRRWXR

CURRENT HOURLY OBSERVATIONS ACROSS
MUCH OF THE UPPER MISSISSIPPI VALLEY
NATIONAL WEATHER SERVICE LA CROSSE WI
1100 PM CST SUN JAN 21 2018


...SOUTHEAST MINNESOTA...


CITY           SKY/WX    TMP DP  RH WIND       PRES   REMARKS
ROCHESTER      CLOUDY    35  30  82 N14       29.84F WCI  26
ROCHESTER/MAYO CLOUDY    37  31  79 N8        29.86F WCI  30
WINONA         CLOUDY    39  32  75 N3        29.86F
AUSTIN         NOT AVBL
ALBERT LEA     CLOUDY    36  28  75 NE12      29.81F WCI  27
DODGE CENTER   CLOUDY    36  30  80 NE12      29.84F WCI  27
PRESTON        CLOUDY    36  31  82 NE8       29.83F WCI  29
OWATONNA       CLOUDY    36  30  80 N13G18    29.87F WCI  27
FARIBAULT      CLOUDY    36  30  80 N12       29.89F WCI  27
$$

...ELSEWHERE IN MINNESOTA...


CITY           SKY/WX    TMP DP  RH WIND       PRES   REMARKS
MINNEAPOLIS    CLOUDY    35  30  82 N8        29.94F WCI  29
INTNL FALLS    CLOUDY    24  22  91 NE7       30.09S FOG     WCI  16
DULUTH         LGT SNOW  29  28  96 E12       30.03S VSB 1   WCI  19
RED WING       CLOUDY    39  27  60 E9        29.90F WCI  33
REDWOOD FALLS  CLOUDY    34  28  79 VRB6      29.93F WCI  29
MANKATO        CLOUDY    35  29  78 NE16      29.87F WCI  25
WORTHINGTON    CLOUDY    33  29  85 N21G29    29.83F WCI  21
FAIRMONT       CLOUDY    34  29  82 N15G22    29.82F WCI  24
$$

...SOUTHWEST WISCONSIN...


CITY           SKY/WX    TMP DP  RH WIND       PRES   REMARKS
LA CROSSE      LGT RAIN  41  34  76 E12G22    29.86F
PRAIRIE DU CHI CLOUDY    38  37  95 NE6       29.82F FOG     WCI  33
BOSCOBEL       CLOUDY    38  37  97 NE5       29.84F FOG     WCI  34
LONE ROCK      CLOUDY    38  38 100 E9        29.85F FOG     WCI  31
PLATTEVILLE    CLOUDY    37  37 100 NE12      29.81F WCI  30
FORT MC COY    CLOUDY    37  35  93 E7        29.89F WCI  31
CAMP DOUGLAS   LGT RAIN  37  36  99 NE5       29.89S FOG     WCI  33
MAUSTON-NEW LI RAIN      36  35  96 CALM      29.88F
VIROQUA        CLOUDY    36  36 100 NE12      29.84S WCI  28
WIS DELLS      FOG       35  35  99 NE7       29.88R VSB 3/4 WCI  29
$$

...ELSEWHERE IN WISCONSIN...


CITY           SKY/WX    TMP DP  RH WIND       PRES   REMARKS
MILWAUKEE      FOG       37  37 100 NE8       29.90R VSB 1/4 WCI  31
MADISON        DRIZZLE   36  36 100 E13       29.86F FOG     WCI  27
GREEN BAY      CLOUDY    33  31  92 NE12      29.96F FOG     WCI  24
EAU CLAIRE     NOT AVBL
BLACK RVR FLS  CLOUDY    39  31  73 E6        29.89F WCI  34
MEDFORD        CLOUDY    35  30  82 NE9       29.92F WCI  28
WAUSAU         CLOUDY    36  30  79 E10       29.92S WCI  28
WIS RAPIDS     CLOUDY    37  31  78 E10       29.92F WCI  30
MARSHFIELD     CLOUDY    36  31  82 E14       29.90F WCI  27
RICE LAKE      CLOUDY    34  30  84 N6        29.98R WCI  29
$$

...NORTHEAST IOWA...


CITY           SKY/WX    TMP DP  RH WIND       PRES   REMARKS
WATERLOO       CLOUDY    37  36  96 NE14      29.74F FOG     WCI  28
DUBUQUE        FOG       36  35  96 NE13      29.77F VSB 1/4 WCI  27
DECORAH        CLOUDY    36  36 100 NE13      29.79F FOG     WCI  27
MASON CITY     CLOUDY    36  32  85 NE18      29.77F FOG     WCI  26
CHARLES CITY   CLOUDY    37  37 100 NE20G25   29.76F FOG     WCI  27
OELWEIN        FOG       37  37 100 NE16      29.76F VSB 1   WCI  28
$$

...ELSEWHERE IN IOWA...


CITY           SKY/WX    TMP DP  RH WIND       PRES   REMARKS
DES MOINES     LGT RAIN  39  38  96 N12       29.64F FOG     WCI  32
IOWA CITY      CLOUDY    42  39  89 NE10      29.71F FOG
FORT DODGE     CLOUDY    35  34  96 NE10      29.71F FOG     WCI  27
MARSHALLTOWN   LGT RAIN  37  37 100 NE15      29.69F VSB 3/4 WCI  28
CEDAR RAPIDS   DRZL/FOG  41  40  96 E16       29.70F VSB 3/4
$$

...NORTHERN ILLINOIS...


CITY           SKY/WX    TMP DP  RH WIND       PRES   REMARKS
CHICAGO-OHARE  FOG       43  42  97 SE7       29.83F VSB 1/8
CHICAGO-MIDWAY FOG       48  48 100 S10       29.84F VSB 1/2
MOLINE         FOG       43  42  97 E5        29.73F VSB 1/4
ROCKFORD       DRZL/FOG  40  40 100 E8        29.82F VSB 1/4 WCI  34
PEORIA         FOG       51  51 100 S13       29.77F VSB 1/4
$$

NOTE: "FAIR" INDICATES FEW OR NO CLOUDS BELOW 12,000 FEET WITH NO
SIGNIFICANT WEATHER AND/OR OBSTRUCTIONS TO VISIBILITY. WIND
SPEEDS ARE IN MILES-PER-HOUR.




USA.gov is the U.S. government's official web portal to all federal, state and local government web resources and services.